User: anonymous   Login
Location: Innerarity Island Observatory
(30.3139°N, 87.4867°W)
Time: 21:11:29
(UTC-05:00)
Language:

OPAL - Orbit

View from above orbital plane
View from above orbital plane
View from above satellite
View from above satellite

Ground track
Ground track

The orbit data is extracted from the following two-line orbital elements,

1 26063U 00004C   18170.23662403 -.00000016  00000-0  14446-4 0  9995
2 26063 100.1911 246.5733 0036355 355.0729   5.0088 14.36699971964088
Epoch (UTC): 19 June 2018 05:40:44
Eccentricity: 0.0036355
inclination: 100.1911°
perigee height: 743 km
apogee height: 795 km
right ascension of ascending node: 246.5733°
argument of perigee: 355.0729°
revolutions per day: 14.36699971
mean anomaly at epoch: 5.0088°
orbit number at epoch: 96408

The dashed part of the orbit path shows where the satellite is in the earth's shadow,  

DLR